Time,TemperatureF,DewpointF,PressureIn,WindDirection,WindDirectionDegrees,WindSpeedMPH,WindSpeedGustMPH,Humidity,HourlyPrecipIn,Conditions,Clouds,dailyrainin,SolarRadiationWatts/m^2,SoftwareType,DateUTC
2013-01-28 00:02:00,27.0,21.0,-100.00,SSE,147,1.0,4.0,78,-99.99,,,0.00,0.000000,,2013-01-28 07:02:00,
2013-01-28 00:11:00,27.0,21.0,-100.00,SSE,147,1.0,4.0,78,-99.99,,,0.00,0.000000,,2013-01-28 07:11:00,
2013-01-28 00:41:00,27.0,21.0,-100.00,SSE,163,6.0,10.0,77,-99.99,,,0.00,0.000000,,2013-01-28 07:41:00,
2013-01-28 00:52:00,27.0,21.0,-100.00,SSE,163,6.0,10.0,77,-99.99,,,0.00,0.000000,,2013-01-28 07:52:00,
2013-01-28 01:01:00,27.0,21.0,-100.00,SSE,163,6.0,10.0,77,-99.99,,,0.00,0.000000,,2013-01-28 08:01:00,
2013-01-28 01:11:00,27.0,21.0,-100.00,SSE,163,6.0,10.0,77,-99.99,,,0.00,0.000000,,2013-01-28 08:11:00,
2013-01-28 01:42:00,27.0,21.0,-100.00,SSE,152,5.0,9.0,77,-99.99,,,0.00,0.000000,,2013-01-28 08:42:00,
2013-01-28 01:52:00,27.0,21.0,-100.00,SSE,152,5.0,9.0,77,-99.99,,,0.00,0.000000,,2013-01-28 08:52:00,
2013-01-28 02:01:00,27.0,21.0,-100.00,SSE,152,5.0,9.0,77,-99.99,,,0.00,0.000000,,2013-01-28 09:01:00,
2013-01-28 02:11:00,27.0,21.0,-100.00,SSE,152,5.0,9.0,77,-99.99,,,0.00,0.000000,,2013-01-28 09:11:00,
2013-01-28 02:42:00,26.0,20.0,-100.00,South,172,1.0,3.0,76,-99.99,,,0.00,0.000000,,2013-01-28 09:42:00,
2013-01-28 02:52:00,26.0,20.0,-100.00,South,172,1.0,3.0,76,-99.99,,,0.00,0.000000,,2013-01-28 09:52:00,
2013-01-28 03:01:00,26.0,20.0,-100.00,South,172,1.0,3.0,76,-99.99,,,0.00,0.000000,,2013-01-28 10:01:00,
2013-01-28 03:11:00,26.0,20.0,-100.00,South,172,1.0,3.0,76,-99.99,,,0.00,0.000000,,2013-01-28 10:11:00,
2013-01-28 03:41:00,26.0,20.0,-100.00,South,169,3.0,6.0,77,-99.99,,,0.00,0.000000,,2013-01-28 10:41:00,
2013-01-28 03:52:00,26.0,20.0,-100.00,South,169,3.0,6.0,77,-99.99,,,0.00,0.000000,,2013-01-28 10:52:00,
2013-01-28 04:02:00,26.0,20.0,-100.00,South,169,3.0,6.0,77,-99.99,,,0.00,0.000000,,2013-01-28 11:02:00,
2013-01-28 04:11:00,26.0,20.0,-100.00,South,169,3.0,6.0,77,-99.99,,,0.00,0.000000,,2013-01-28 11:11:00,
2013-01-28 04:42:00,28.0,20.0,-100.00,SSE,165,5.0,11.0,73,-99.99,,,0.00,0.000000,,2013-01-28 11:42:00,
2013-01-28 04:52:00,28.0,20.0,-100.00,SSE,165,5.0,11.0,73,-99.99,,,0.00,0.000000,,2013-01-28 11:52:00,
2013-01-28 05:03:00,28.0,20.0,-100.00,SSE,165,5.0,11.0,73,-99.99,,,0.00,0.000000,,2013-01-28 12:03:00,
2013-01-28 05:11:00,28.0,20.0,-100.00,SSE,165,5.0,11.0,73,-99.99,,,0.00,0.000000,,2013-01-28 12:11:00,
2013-01-28 05:32:00,27.0,20.0,-100.00,SE,146,4.0,8.0,76,-99.99,,,0.00,0.000000,,2013-01-28 12:32:00,
2013-01-28 05:42:00,27.0,20.0,-100.00,SE,146,4.0,8.0,76,-99.99,,,0.00,0.000000,,2013-01-28 12:42:00,
2013-01-28 05:52:00,27.0,20.0,-100.00,SE,146,4.0,8.0,76,-99.99,,,0.00,0.000000,,2013-01-28 12:52:00,
2013-01-28 06:02:00,27.0,20.0,-100.00,SE,146,4.0,8.0,76,-99.99,,,0.00,0.000000,,2013-01-28 13:02:00,
2013-01-28 06:11:00,27.0,20.0,-100.00,SE,146,4.0,8.0,76,-99.99,,,0.00,0.000000,,2013-01-28 13:11:00,
2013-01-28 06:33:00,27.0,21.0,-100.00,SE,146,2.0,8.0,77,-99.99,,,0.00,0.000000,,2013-01-28 13:33:00,
2013-01-28 06:42:00,27.0,21.0,-100.00,SE,146,2.0,8.0,77,-99.99,,,0.00,0.000000,,2013-01-28 13:42:00,
2013-01-28 06:53:00,27.0,21.0,-100.00,SE,146,2.0,8.0,77,-99.99,,,0.00,0.000000,,2013-01-28 13:53:00,
2013-01-28 07:02:00,27.0,21.0,-100.00,SE,146,2.0,8.0,77,-99.99,,,0.00,0.000000,,2013-01-28 14:02:00,
2013-01-28 07:11:00,27.0,21.0,-100.00,SE,146,2.0,8.0,77,-99.99,,,0.00,0.000000,,2013-01-28 14:11:00,
2013-01-28 07:42:00,27.0,20.0,-100.00,SSE,156,4.0,7.0,77,-99.99,,,0.00,0.000000,,2013-01-28 14:42:00,
2013-01-28 07:53:00,27.0,20.0,-100.00,SSE,156,4.0,7.0,77,-99.99,,,0.00,0.000000,,2013-01-28 14:53:00,
2013-01-28 08:03:00,27.0,20.0,-100.00,SSE,156,4.0,7.0,77,-99.99,,,0.00,0.000000,,2013-01-28 15:03:00,
2013-01-28 08:12:00,27.0,20.0,-100.00,SSE,156,4.0,7.0,77,-99.99,,,0.00,0.000000,,2013-01-28 15:12:00,
2013-01-28 08:33:00,26.0,20.0,-100.00,SE,142,3.0,5.0,80,-99.99,,,0.00,6.510000,,2013-01-28 15:33:00,
2013-01-28 08:42:00,26.0,20.0,-100.00,SE,142,3.0,5.0,80,-99.99,,,0.00,6.510000,,2013-01-28 15:42:00,
2013-01-28 08:53:00,26.0,20.0,-100.00,SE,142,3.0,5.0,80,-99.99,,,0.00,6.510000,,2013-01-28 15:53:00,
2013-01-28 09:03:00,26.0,20.0,-100.00,SE,142,3.0,5.0,80,-99.99,,,0.00,6.510000,,2013-01-28 16:03:00,
2013-01-28 09:12:00,26.0,20.0,-100.00,SE,142,3.0,5.0,80,-99.99,,,0.00,6.510000,,2013-01-28 16:12:00,
2013-01-28 09:42:00,28.0,21.0,-100.00,SSE,166,4.0,9.0,76,-99.99,,,-99.99,123.309998,,2013-01-28 16:42:00,
2013-01-28 09:53:00,28.0,21.0,-100.00,SSE,166,4.0,9.0,76,-99.99,,,-99.99,123.309998,,2013-01-28 16:53:00,
2013-01-28 10:01:00,28.0,21.0,-100.00,SSE,166,4.0,9.0,76,-99.99,,,-99.99,123.309998,,2013-01-28 17:01:00,
2013-01-28 10:11:00,28.0,21.0,-100.00,SSE,166,4.0,9.0,76,-99.99,,,-99.99,123.309998,,2013-01-28 17:11:00,
2013-01-28 10:42:00,28.0,21.0,-100.00,South,170,3.0,7.0,72,-99.99,,,0.00,79.489998,,2013-01-28 17:42:00,
2013-01-28 10:52:00,28.0,21.0,-100.00,South,170,3.0,7.0,72,-99.99,,,0.00,79.489998,,2013-01-28 17:52:00,
2013-01-28 11:02:00,28.0,21.0,-100.00,South,170,3.0,7.0,72,-99.99,,,0.00,79.489998,,2013-01-28 18:02:00,
2013-01-28 11:12:00,28.0,21.0,-100.00,South,170,3.0,7.0,72,-99.99,,,0.00,79.489998,,2013-01-28 18:12:00,
2013-01-28 11:42:00,31.0,16.0,-100.00,South,171,7.0,15.0,52,-99.99,,,0.00,143.649994,,2013-01-28 18:42:00,
2013-01-28 11:52:00,31.0,16.0,-100.00,South,171,7.0,15.0,52,-99.99,,,0.00,143.649994,,2013-01-28 18:52:00,
2013-01-28 12:02:00,31.0,16.0,-100.00,South,171,7.0,15.0,52,-99.99,,,0.00,143.649994,,2013-01-28 19:02:00,
2013-01-28 12:12:00,31.0,16.0,-100.00,South,171,7.0,15.0,52,-99.99,,,0.00,143.649994,,2013-01-28 19:12:00,
2013-01-28 12:42:00,34.0,16.0,-100.00,South,174,7.0,14.0,46,-99.99,,,0.00,414.910004,,2013-01-28 19:42:00,
2013-01-28 12:52:00,34.0,16.0,-100.00,South,174,7.0,14.0,46,-99.99,,,0.00,414.910004,,2013-01-28 19:52:00,
2013-01-28 13:02:00,34.0,16.0,-100.00,South,174,7.0,14.0,46,-99.99,,,0.00,414.910004,,2013-01-28 20:02:00,
2013-01-28 13:11:00,34.0,16.0,-100.00,South,174,7.0,14.0,46,-99.99,,,0.00,414.910004,,2013-01-28 20:11:00,
2013-01-28 13:42:00,35.0,17.0,-100.00,South,170,9.0,18.0,47,-99.99,,,0.00,498.239990,,2013-01-28 20:42:00,
2013-01-28 13:52:00,35.0,17.0,-100.00,South,170,9.0,18.0,47,-99.99,,,0.00,498.239990,,2013-01-28 20:52:00,
2013-01-28 14:02:00,35.0,17.0,-100.00,South,170,9.0,18.0,47,-99.99,,,0.00,498.239990,,2013-01-28 21:02:00,
2013-01-28 14:11:00,35.0,17.0,-100.00,South,170,9.0,18.0,47,-99.99,,,0.00,498.239990,,2013-01-28 21:11:00,
2013-01-28 14:42:00,35.0,17.0,-100.00,South,173,4.0,11.0,46,-99.99,,,0.00,257.309998,,2013-01-28 21:42:00,
2013-01-28 14:53:00,35.0,17.0,-100.00,South,173,4.0,11.0,46,-99.99,,,0.00,257.309998,,2013-01-28 21:53:00,
2013-01-28 15:01:00,35.0,17.0,-100.00,South,173,4.0,11.0,46,-99.99,,,0.00,257.309998,,2013-01-28 22:01:00,
2013-01-28 15:11:00,35.0,17.0,-100.00,South,173,4.0,11.0,46,-99.99,,,0.00,257.309998,,2013-01-28 22:11:00,
2013-01-28 15:42:00,35.0,20.0,-100.00,SSE,166,7.0,12.0,51,-99.99,,,0.00,307.399994,,2013-01-28 22:42:00,
2013-01-28 15:52:00,35.0,20.0,-100.00,SSE,166,7.0,12.0,51,-99.99,,,0.00,307.399994,,2013-01-28 22:52:00,
2013-01-28 16:01:00,35.0,20.0,-100.00,SSE,166,7.0,12.0,51,-99.99,,,0.00,307.399994,,2013-01-28 23:01:00,
2013-01-28 16:11:00,35.0,20.0,-100.00,SSE,166,7.0,12.0,51,-99.99,,,0.00,307.399994,,2013-01-28 23:11:00,
2013-01-28 16:32:00,35.0,17.0,-100.00,SW,223,3.0,8.0,47,-99.99,,,0.00,105.529999,,2013-01-28 23:32:00,
2013-01-28 16:42:00,35.0,17.0,-100.00,SW,223,3.0,8.0,47,-99.99,,,0.00,105.529999,,2013-01-28 23:42:00,
2013-01-28 16:53:00,35.0,17.0,-100.00,SW,223,3.0,8.0,47,-99.99,,,0.00,105.529999,,2013-01-28 23:53:00,
2013-01-28 17:02:00,35.0,17.0,-100.00,SW,223,3.0,8.0,47,-99.99,,,0.00,105.529999,,2013-01-29 00:02:00,
2013-01-28 17:11:00,35.0,17.0,-100.00,SW,223,3.0,8.0,47,-99.99,,,0.00,105.529999,,2013-01-29 00:11:00,
2013-01-28 17:42:00,32.0,22.0,-100.00,South,173,5.0,12.0,65,-99.99,,,0.00,12.320000,,2013-01-29 00:42:00,
2013-01-28 17:52:00,32.0,22.0,-100.00,South,173,5.0,12.0,65,-99.99,,,0.00,12.320000,,2013-01-29 00:52:00,
2013-01-28 18:02:00,32.0,22.0,-100.00,South,173,5.0,12.0,65,-99.99,,,0.00,12.320000,,2013-01-29 01:02:00,
2013-01-28 18:11:00,32.0,22.0,-100.00,South,173,5.0,12.0,65,-99.99,,,0.00,12.320000,,2013-01-29 01:11:00,
2013-01-28 18:42:00,31.0,23.0,-100.00,South,170,4.0,8.0,70,-99.99,,,0.00,0.000000,,2013-01-29 01:42:00,
2013-01-28 18:52:00,31.0,23.0,-100.00,South,170,4.0,8.0,70,-99.99,,,0.00,0.000000,,2013-01-29 01:52:00,
2013-01-28 19:02:00,31.0,23.0,-100.00,South,170,4.0,8.0,70,-99.99,,,0.00,0.000000,,2013-01-29 02:02:00,
2013-01-28 19:11:00,31.0,23.0,-100.00,South,170,4.0,8.0,70,-99.99,,,0.00,0.000000,,2013-01-29 02:11:00,
2013-01-28 19:41:00,31.0,24.0,-100.00,South,187,2.0,7.0,74,-99.99,,,0.00,0.000000,,2013-01-29 02:41:00,
2013-01-28 19:53:00,31.0,24.0,-100.00,South,187,2.0,7.0,74,-99.99,,,0.00,0.000000,,2013-01-29 02:53:00,
2013-01-28 20:02:00,31.0,24.0,-100.00,South,187,2.0,7.0,74,-99.99,,,0.00,0.000000,,2013-01-29 03:02:00,
2013-01-28 20:11:00,31.0,24.0,-100.00,South,187,2.0,7.0,74,-99.99,,,0.00,0.000000,,2013-01-29 03:11:00,
2013-01-28 20:32:00,31.0,23.0,-100.00,South,181,1.0,5.0,71,-99.99,,,0.00,0.000000,,2013-01-29 03:32:00,
2013-01-28 20:42:00,31.0,23.0,-100.00,South,181,1.0,5.0,71,-99.99,,,0.00,0.000000,,2013-01-29 03:42:00,
2013-01-28 20:53:00,31.0,23.0,-100.00,South,181,1.0,5.0,71,-99.99,,,0.00,0.000000,,2013-01-29 03:53:00,
2013-01-28 21:01:00,31.0,23.0,-100.00,South,181,1.0,5.0,71,-99.99,,,0.00,0.000000,,2013-01-29 04:01:00,
2013-01-28 21:11:00,31.0,23.0,-100.00,South,181,1.0,5.0,71,-99.99,,,0.00,0.000000,,2013-01-29 04:11:00,
2013-01-28 21:32:00,31.0,23.0,-100.00,East,101,0.0,2.0,72,-99.99,,,0.00,0.000000,,2013-01-29 04:32:00,
2013-01-28 21:41:00,31.0,23.0,-100.00,East,101,0.0,2.0,72,-99.99,,,0.00,0.000000,,2013-01-29 04:41:00,
2013-01-28 21:52:00,31.0,23.0,-100.00,East,101,0.0,2.0,72,-99.99,,,0.00,0.000000,,2013-01-29 04:52:00,
2013-01-28 22:03:00,31.0,23.0,-100.00,East,101,0.0,2.0,72,-99.99,,,0.00,0.000000,,2013-01-29 05:03:00,
2013-01-28 22:12:00,31.0,23.0,-100.00,East,101,0.0,2.0,72,-99.99,,,0.00,0.000000,,2013-01-29 05:12:00,
2013-01-28 22:32:00,30.0,23.0,-100.00,South,181,2.0,7.0,73,-99.99,,,0.00,0.000000,,2013-01-29 05:32:00,
2013-01-28 22:42:00,30.0,23.0,-100.00,South,181,2.0,7.0,73,-99.99,,,0.00,0.000000,,2013-01-29 05:42:00,
2013-01-28 22:52:00,30.0,23.0,-100.00,South,181,2.0,7.0,73,-99.99,,,0.00,0.000000,,2013-01-29 05:52:00,
2013-01-28 23:01:00,30.0,23.0,-100.00,South,181,2.0,7.0,73,-99.99,,,0.00,0.000000,,2013-01-29 06:01:00,
2013-01-28 23:11:00,30.0,23.0,-100.00,South,181,2.0,7.0,73,-99.99,,,0.00,0.000000,,2013-01-29 06:11:00,
2013-01-28 23:31:00,30.0,23.0,-100.00,SSE,167,4.0,9.0,75,-99.99,,,-99.99,0.000000,,2013-01-29 06:31:00,
2013-01-28 23:41:00,30.0,23.0,-100.00,SSE,167,4.0,9.0,75,-99.99,,,-99.99,0.000000,,2013-01-29 06:41:00,
2013-01-28 23:52:00,30.0,23.0,-100.00,SSE,167,4.0,9.0,75,-99.99,,,-99.99,0.000000,,2013-01-29 06:52:00,